Princeton, MN

4:21 AM CST on November 15, 2019 (GMT -0600)
Princeton Municipal

Weather History for KPNM - June, 2019

Change the Weather History Date:

Thursday, June 6, 2019

  Actual Average Record
Temperature  
Mean Temperature 69 °F -  
Max Temperature 87 °F 71 °F 91 °F (2011)
Min Temperature 51 °F 49 °F 6 °F (1997)
Cooling Degree Days 4    
Growing Degree Days 19 (Base 50)    
Moisture  
Dew Point 56 °F    
Average Humidity 68    
Maximum Humidity 100    
Minimum Humidity 31    
Precipitation  
Precipitation 0.00 in - - ()
Sea Level Pressure  
Sea Level Pressure 29.89 in    
Wind  
Wind Speed 2 mph (SSE)    
Max Wind Speed 8 mph    
Max Gust Speed -    
Visibility 8 miles    
Events Fog    
Averages and records for this station are not official NWS values.
T = Trace of Precipitation, MM = Missing Value Source: NWS Daily Summary

Daily Weather History Graph

Daily Weather History Graph

Search for Another Location

Airport or City:

Astronomy

Jun. 06, 2019 Rise Set
Actual Time 5:26 AM CDT 8:59 PM CDT
Civil Twilight 4:49 AM CDT 9:37 PM CDT
Nautical Twilight 3:59 AM CDT 10:27 PM CDT
Astronomical Twilight 2:54 AM CDT 11:32 PM CDT
Moon 8:37 AM CDT (6/6) No Moon Set
Length of Visible Light 16h 48m
Length of Day
15h 33m
Waxing Crescent, 14% of the Moon is Illuminated
Jun 6
Waxing Crescent
Jun 10
First Quarter
Jun 17
Full
Jun 25
Last Quarter
Jul 2
New

Hourly Weather History & Observations

Time (CDT) Temp. Heat Index Dew Point Humidity Pressure Visibility Wind Dir Wind Speed Gust Speed Precip Events Conditions
12:15 AM 62.6 °F - 57.2 °F 82% 29.90 in 10.0 mi East 3.5 mph - N/A   Clear
12:16 AM 62.6 °F - 57.2 °F 82% 29.90 in 10.0 mi East 3.5 mph - N/A   Clear
12:35 AM 60.8 °F - 57.2 °F 88% 29.90 in 10.0 mi East 3.5 mph - N/A   Clear
12:37 AM 60.8 °F - 57.2 °F 88% 29.90 in 10.0 mi Calm Calm - N/A   Clear
12:55 AM 60.8 °F - 57.2 °F 88% 29.90 in 10.0 mi Calm Calm - N/A   Clear
1:15 AM 59.0 °F - 57.2 °F 94% 29.91 in 10.0 mi Calm Calm - N/A   Clear
1:16 AM 59.0 °F - 57.2 °F 94% 29.91 in 10.0 mi Calm Calm - N/A   Clear
1:36 AM 57.2 °F - 55.4 °F 94% 29.90 in 10.0 mi Calm Calm - N/A   Clear
1:55 AM 57.2 °F - 55.4 °F 94% 29.90 in 10.0 mi Calm Calm - N/A   Clear
1:56 AM 57.2 °F - 55.4 °F 94% 29.90 in 10.0 mi Calm Calm - N/A   Clear
2:15 AM 55.4 °F - 53.6 °F 94% 29.90 in 10.0 mi Calm Calm - N/A   Clear
2:16 AM 55.4 °F - 53.6 °F 94% 29.90 in 10.0 mi Calm Calm - N/A   Clear
2:35 AM 55.4 °F - 55.4 °F 100% 29.90 in 7.0 mi Calm Calm - N/A   Clear
2:36 AM 57.2 °F - 55.4 °F 94% 29.90 in 7.0 mi Calm Calm - N/A   Clear
2:55 AM 57.2 °F - 55.4 °F 94% 29.90 in 7.0 mi Calm Calm - N/A   Clear
3:15 AM 55.4 °F - 55.4 °F 100% 29.90 in 7.0 mi Calm Calm - N/A   Clear
3:35 AM 55.4 °F - 53.6 °F 94% 29.89 in 3.0 mi Calm Calm - N/A   Clear
3:36 AM 55.4 °F - 53.6 °F 94% 29.89 in 1.8 mi Calm Calm - N/A   Clear
3:55 AM 53.6 °F - 51.8 °F 94% 29.89 in 0.5 mi Calm Calm - N/A Fog Fog
4:15 AM 51.8 °F - 51.8 °F 100% 29.90 in 0.2 mi Calm Calm - N/A Fog Fog
4:16 AM 51.8 °F - 51.8 °F 100% 29.90 in 0.2 mi Calm Calm - N/A Fog Fog
4:35 AM 51.8 °F - 50.0 °F 94% 29.90 in 0.2 mi Calm Calm - N/A Fog Fog
4:36 AM 51.8 °F - 50.0 °F 94% 29.90 in 0.2 mi Calm Calm - N/A Fog Fog
4:55 AM 53.6 °F - 51.8 °F 94% 29.91 in 0.2 mi Calm Calm - N/A Fog Fog
5:15 AM 51.8 °F - 50.0 °F 94% 29.91 in 0.2 mi Calm Calm - N/A Fog Fog
5:16 AM 51.8 °F - 50.0 °F 94% 29.90 in 0.2 mi Calm Calm - N/A Fog Fog
5:35 AM 51.8 °F - 51.8 °F 100% 29.90 in 0.2 mi Calm Calm - N/A Fog Fog
5:36 AM 51.8 °F - 51.8 °F 100% 29.90 in 0.2 mi Calm Calm - N/A Fog Fog
5:55 AM 51.8 °F - 51.8 °F 100% 29.90 in 0.5 mi Calm Calm - N/A Fog Fog
5:56 AM 51.8 °F - 51.8 °F 100% 29.91 in 0.5 mi Calm Calm - N/A Fog Fog
6:15 AM 53.6 °F - 51.8 °F 94% 29.90 in 1.2 mi Calm Calm - N/A   Clear
6:35 AM 53.6 °F - 53.6 °F 100% 29.91 in 5.0 mi Calm Calm - N/A   Clear
6:37 AM 53.6 °F - 53.6 °F 100% 29.91 in 5.0 mi Calm Calm - N/A   Clear
6:55 AM 57.2 °F - 55.4 °F 94% 29.91 in 7.0 mi Calm Calm - N/A   Clear
6:56 AM 57.2 °F - 55.4 °F 94% 29.91 in 7.0 mi Calm Calm - N/A   Clear
7:15 AM 59.0 °F - 57.2 °F 94% 29.90 in 7.0 mi Calm Calm - N/A   Clear
7:16 AM 59.0 °F - 57.2 °F 94% 29.90 in 7.0 mi SE 3.5 mph - N/A   Clear
7:36 AM 60.8 °F - 59.0 °F 94% 29.92 in 10.0 mi Calm Calm - N/A   Clear
7:55 AM 62.6 °F - 60.8 °F 94% 29.92 in 10.0 mi SSE 3.5 mph - N/A   Clear
7:56 AM 62.6 °F - 60.8 °F 94% 29.92 in 10.0 mi SSE 3.5 mph - N/A   Clear
8:15 AM 64.4 °F - 60.8 °F 88% 29.91 in 10.0 mi SSE 3.5 mph - N/A   Clear
8:17 AM 64.4 °F - 60.8 °F 88% 29.91 in 10.0 mi SE 4.6 mph - N/A   Clear
8:38 AM 66.2 °F - 60.8 °F 83% 29.92 in 10.0 mi SSE 4.6 mph - N/A   Clear
8:56 AM 69.8 °F - 59.0 °F 68% 29.92 in 10.0 mi SSE 5.8 mph - N/A   Clear
9:15 AM 69.8 °F - 59.0 °F 68% 29.91 in 10.0 mi SE 5.8 mph - N/A   Clear
9:35 AM 71.6 °F - 60.8 °F 69% 29.91 in 10.0 mi SSE 5.8 mph - N/A   Clear
9:36 AM 71.6 °F - 60.8 °F 69% 29.91 in 10.0 mi South 5.8 mph - N/A   Clear
9:59 AM 73.4 °F - 60.8 °F 65% 29.91 in 10.0 mi South 4.6 mph - N/A   Clear
10:17 AM 75.2 °F - 60.8 °F 61% 29.91 in 10.0 mi SSE 4.6 mph - N/A   Clear
10:35 AM 75.2 °F - 60.8 °F 61% 29.91 in 10.0 mi South 4.6 mph - N/A   Clear
10:55 AM 77.0 °F - 60.8 °F 57% 29.90 in 10.0 mi SSW 4.6 mph - N/A   Clear
10:56 AM 77.0 °F - 59.0 °F 54% 29.90 in 10.0 mi South 5.8 mph - N/A   Clear
11:15 AM 78.8 °F - 60.8 °F 54% 29.90 in 10.0 mi SW 4.6 mph - N/A   Clear
11:38 AM 78.8 °F - 60.8 °F 54% 29.90 in 10.0 mi SSW 4.6 mph - N/A   Clear
11:56 AM 78.8 °F - 59.0 °F 51% 29.90 in 10.0 mi South 3.5 mph - N/A   Clear
12:15 PM 80.6 °F 80.8 °F 57.2 °F 45% 29.90 in 10.0 mi South 5.8 mph - N/A   Clear
12:35 PM 82.4 °F 82.0 °F 57.2 °F 42% 29.89 in 10.0 mi South 3.5 mph - N/A   Clear
12:59 PM 82.4 °F 81.7 °F 55.4 °F 39% 29.89 in 10.0 mi SE 4.6 mph - N/A   Clear
1:17 PM 82.4 °F 81.4 °F 53.6 °F 37% 29.89 in 10.0 mi Calm Calm - N/A   Clear
1:35 PM 82.4 °F 81.4 °F 53.6 °F 37% 29.88 in 10.0 mi SSE 3.5 mph - N/A   Clear
1:36 PM 82.4 °F 81.4 °F 53.6 °F 37% 29.88 in 10.0 mi SSE 3.5 mph - N/A   Clear
1:55 PM 84.2 °F - 51.8 °F 33% 29.88 in 10.0 mi Calm Calm - N/A   Clear
1:56 PM 84.2 °F - 51.8 °F 33% 29.88 in 10.0 mi SW 3.5 mph - N/A   Clear
2:15 PM 84.2 °F 82.8 °F 53.6 °F 35% 29.88 in 10.0 mi SSW 3.5 mph - N/A   Clear
2:20 PM 84.2 °F - 51.8 °F 33% 29.87 in 10.0 mi SW 4.6 mph - N/A   Clear
2:38 PM 84.2 °F 82.8 °F 53.6 °F 35% 29.87 in 10.0 mi SW 3.5 mph - N/A   Clear
2:56 PM 86.0 °F 84.2 °F 53.6 °F 33% 29.87 in 10.0 mi South 5.8 mph - N/A   Clear
3:15 PM 86.0 °F 84.2 °F 53.6 °F 33% 29.87 in 10.0 mi South 4.6 mph - N/A   Clear
3:35 PM 86.0 °F 84.2 °F 53.6 °F 33% 29.87 in 10.0 mi West 3.5 mph - N/A   Clear
3:59 PM 87.8 °F 85.7 °F 53.6 °F 31% 29.87 in 10.0 mi South 4.6 mph - N/A   Clear
4:17 PM 87.8 °F 86.1 °F 55.4 °F 33% 29.87 in 10.0 mi South 5.8 mph - N/A   Clear
4:35 PM 86.0 °F 84.2 °F 53.6 °F 33% 29.86 in 10.0 mi South 6.9 mph - N/A   Clear
4:55 PM 87.8 °F 85.7 °F 53.6 °F 31% 29.86 in 10.0 mi SW 4.6 mph - N/A   Clear
5:15 PM 87.8 °F 85.7 °F 53.6 °F 31% 29.86 in 10.0 mi South 5.8 mph - N/A   Clear
5:38 PM 86.0 °F 84.2 °F 53.6 °F 33% 29.86 in 10.0 mi SSE 3.5 mph - N/A   Clear
5:56 PM 86.0 °F 84.2 °F 53.6 °F 33% 29.85 in 10.0 mi South 3.5 mph - N/A   Clear
6:15 PM 86.0 °F 84.2 °F 53.6 °F 33% 29.85 in 10.0 mi South 4.6 mph - N/A   Clear
6:35 PM 84.2 °F 82.8 °F 53.6 °F 35% 29.85 in 10.0 mi SSE 8.1 mph - N/A   Clear
6:59 PM 84.2 °F 83.0 °F 55.4 °F 37% 29.85 in 10.0 mi SSE 5.8 mph - N/A   Clear
7:17 PM 82.4 °F 81.7 °F 55.4 °F 39% 29.85 in 10.0 mi SSE 5.8 mph - N/A   Clear
7:35 PM 82.4 °F 82.0 °F 57.2 °F 42% 29.85 in 10.0 mi South 4.6 mph - N/A   Clear
7:55 PM 80.6 °F 80.8 °F 57.2 °F 45% 29.86 in 10.0 mi SSE 4.6 mph - N/A   Clear
8:15 PM 78.8 °F - 59.0 °F 51% 29.86 in 10.0 mi SSE 4.6 mph - N/A   Clear
8:19 PM 78.8 °F - 60.8 °F 54% 29.86 in 10.0 mi SSE 3.5 mph - N/A   Clear
8:38 PM 77.0 °F - 59.0 °F 54% 29.86 in 10.0 mi Calm Calm - N/A   Clear
8:56 PM 75.2 °F - 59.0 °F 57% 29.86 in 10.0 mi Calm Calm - N/A   Clear
9:15 PM 75.2 °F - 57.2 °F 53% 29.86 in 10.0 mi Calm Calm - N/A   Scattered Clouds
9:35 PM 75.2 °F - 57.2 °F 53% 29.86 in 10.0 mi Calm Calm - N/A   Clear
9:59 PM 69.8 °F - 57.2 °F 64% 29.87 in 10.0 mi Calm Calm - N/A   Clear
10:17 PM 71.6 °F - 57.2 °F 60% 29.87 in 10.0 mi Calm Calm - N/A   Clear
10:35 PM 71.6 °F - 57.2 °F 60% 29.87 in 10.0 mi SE 3.5 mph - N/A   Clear
10:36 PM 71.6 °F - 57.2 °F 60% 29.87 in 10.0 mi SE 3.5 mph - N/A   Clear
10:55 PM 69.8 °F - 57.2 °F 64% 29.87 in 10.0 mi SE 3.5 mph - N/A   Clear
11:19 PM 69.8 °F - 55.4 °F 60% 29.87 in 10.0 mi Calm Calm - N/A   Scattered Clouds
11:37 PM 69.8 °F - 55.4 °F 60% 29.87 in 10.0 mi Calm Calm - N/A   Clear
11:55 PM 69.8 °F - 55.4 °F 60% 29.87 in 10.0 mi Calm Calm - N/A   Clear
11:56 PM 69.8 °F - 55.4 °F 60% 29.87 in 10.0 mi Calm Calm - N/A   Clear